| time (UTC) | temp C | wind direction | speed KPH | gust KPH | rain 1hr cm | rain 24hr cm | rain mn cm | humidity % | barometer mb |
| 20260509035037 | 11 | 203 | 3.2 | 11.3 | 0.00 | 0.46 | 0.46 | 91 | 1008.7 |
| 20260509034536 | 11 | 262 | 3.2 | 14.5 | 0.00 | 0.46 | 0.46 | 91 | 1008.6 |
| 20260509034032 | 11 | 127 | 1.6 | 9.7 | 0.05 | 0.46 | 0.46 | 91 | 1008.5 |
| 20260509033530 | 11 | 217 | 1.6 | 8.0 | 0.05 | 0.46 | 0.46 | 91 | 1008.6 |
| 20260509033026 | 11 | 198 | 3.2 | 8.0 | 0.00 | 0.43 | 0.43 | 91 | 1008.4 |
| 20260509032524 | 11 | 286 | 3.2 | 9.7 | 0.00 | 0.43 | 0.43 | 91 | 1008.3 |
| 20260509032021 | 11 | 172 | 3.2 | 8.0 | 0.00 | 0.43 | 0.43 | 91 | 1008.5 |
| 20260509031518 | 11 | 155 | 8.0 | 9.7 | 0.00 | 0.43 | 0.43 | 91 | 1008.6 |
| 20260509031015 | 11 | 277 | 6.4 | 8.0 | 0.00 | 0.43 | 0.43 | 90 | 1008.7 |
| 20260509030513 | 11 | 186 | 6.4 | 9.7 | 0.00 | 0.43 | 0.43 | 90 | 1008.7 |
| 20260509030010 | 11 | 224 | 0.0 | 8.0 | 0.00 | 0.43 | 0.43 | 90 | 1008.9 |
| 20260509025506 | 11 | 180 | 3.2 | 8.0 | 0.00 | 0.43 | 0.43 | 90 | 1008.7 |
| 20260509025001 | 11 | 312 | 4.8 | 11.3 | 0.00 | 0.43 | 0.43 | 90 | 1008.9 |
| 20260509024458 | 11 | 213 | 1.6 | 8.0 | 0.00 | 0.43 | 0.43 | 90 | 1008.8 |
| 20260509023954 | 11 | 241 | 3.2 | 9.7 | 0.00 | 0.43 | 0.43 | 90 | 1009.0 |
| 20260509023452 | 11 | 290 | 8.0 | 11.3 | 0.00 | 0.43 | 0.43 | 91 | 1008.8 |
| 20260509022948 | 11 | 173 | 8.0 | 9.7 | 0.00 | 0.43 | 0.43 | 91 | 1008.7 |
| 20260509022445 | 11 | 220 | 6.4 | 9.7 | 0.00 | 0.43 | 0.43 | 91 | 1008.8 |
| 20260509021943 | 10 | 163 | 1.6 | 8.0 | 0.00 | 0.43 | 0.43 | 91 | 1008.8 |
| 20260509021439 | 10 | 266 | 1.6 | 9.7 | 0.00 | 0.43 | 0.43 | 92 | 1009.1 |
| 20260509020937 | 10 | 273 | 4.8 | 9.7 | 0.00 | 0.43 | 0.43 | 92 | 1008.8 |
| 20260509020435 | 10 | 215 | 3.2 | 9.7 | 0.00 | 0.43 | 0.43 | 92 | 1008.8 |
| 20260509015932 | 10 | 261 | 3.2 | 8.0 | 0.00 | 0.43 | 0.43 | 92 | 1008.8 |
| 20260509015431 | 10 | 147 | 3.2 | 8.0 | 0.00 | 0.43 | 0.43 | 92 | 1008.9 |
| 20260509014927 | 10 | 152 | 1.6 | 6.4 | 0.00 | 0.43 | 0.43 | 92 | 1008.5 |
| 20260509014424 | 10 | 220 | 4.8 | 9.7 | 0.00 | 0.43 | 0.43 | 92 | 1008.8 |
| 20260509013920 | 10 | 265 | 4.8 | 11.3 | 0.00 | 0.43 | 0.43 | 92 | 1008.7 |
| 20260509013417 | 10 | 254 | 1.6 | 6.4 | 0.00 | 0.43 | 0.43 | 92 | 1008.7 |
| 20260509012913 | 10 | 103 | 0.0 | 8.0 | 0.00 | 0.43 | 0.43 | 92 | 1008.7 |
| 20260509012410 | 10 | 166 | 3.2 | 9.7 | 0.05 | 0.43 | 0.43 | 92 | 1008.8 |
| 20260509011907 | 10 | 144 | 4.8 | 11.3 | 0.05 | 0.43 | 0.43 | 92 | 1008.7 |
| 20260509011404 | 10 | 201 | 3.2 | 11.3 | 0.00 | 0.43 | 0.43 | 92 | 1008.6 |
| 20260509010902 | 10 | 175 | 8.0 | 17.7 | 0.00 | 0.43 | 0.43 | 93 | 1008.7 |
| 20260509010359 | 10 | 281 | 4.8 | 6.4 | 0.05 | 0.43 | 0.43 | 93 | 1008.7 |
| 20260509005856 | 10 | 170 | 3.2 | 11.3 | 0.05 | 0.43 | 0.43 | 93 | 1008.9 |
| 20260509005355 | 10 | 138 | 1.6 | 8.0 | 0.00 | 0.43 | 0.43 | 93 | 1008.8 |
| 20260509004854 | 10 | 227 | 6.4 | 11.3 | 0.05 | 0.43 | 0.43 | 93 | 1008.7 |
| 20260509004351 | 10 | 184 | 3.2 | 11.3 | 0.13 | 0.43 | 0.43 | 93 | 1008.8 |
| 20260509003849 | 10 | 267 | 6.4 | 9.7 | 0.13 | 0.41 | 0.41 | 93 | 1008.6 |
| 20260509003346 | 10 | 152 | 8.0 | 12.9 | 0.13 | 0.41 | 0.41 | 93 | 1008.7 |
| 20260509002843 | 10 | 168 | 4.8 | 11.3 | 0.13 | 0.38 | 0.38 | 93 | 1008.6 |
| 20260509002341 | 10 | 267 | 4.8 | 11.3 | 0.13 | 0.38 | 0.38 | 93 | 1008.5 |
| 20260509001838 | 10 | 278 | 0.0 | 9.7 | 0.05 | 0.36 | 0.36 | 93 | 1008.5 |
| 20260509001334 | 10 | 194 | 4.8 | 11.3 | 0.13 | 0.36 | 0.36 | 93 | 1008.4 |
| 20260509000832 | 10 | 190 | 3.2 | 9.7 | 0.13 | 0.36 | 0.36 | 93 | 1008.8 |
| 20260509000329 | 10 | 154 | 1.6 | 6.4 | 0.13 | 0.33 | 0.33 | 93 | 1008.8 |
| 20260508235825 | 10 | 343 | 0.0 | 14.5 | 0.05 | 0.33 | 0.33 | 93 | 1008.8 |
| 20260508235322 | 10 | 172 | 0.0 | 9.7 | 0.05 | 0.33 | 0.33 | 93 | 1008.6 |
| 20260508234820 | 10 | 259 | 3.2 | 12.9 | 0.13 | 0.33 | 0.33 | 93 | 1008.6 |
| 20260508234316 | 10 | 193 | 4.8 | 9.7 | 0.13 | 0.30 | 0.30 | 93 | 1008.6 |
| 20260508233815 | 10 | 158 | 3.2 | 6.4 | 0.13 | 0.30 | 0.30 | 92 | 1008.6 |
| 20260508233313 | 10 | 118 | 0.0 | 8.0 | 0.13 | 0.28 | 0.28 | 92 | 1008.7 |
| 20260508232810 | 10 | 156 | 1.6 | 9.7 | 0.13 | 0.28 | 0.28 | 92 | 1008.8 |
| 20260508232307 | 10 | 113 | 0.0 | 6.4 | 0.18 | 0.28 | 0.28 | 92 | 1008.7 |
| 20260508231805 | 10 | 157 | 1.6 | 9.7 | 0.18 | 0.25 | 0.25 | 92 | 1008.7 |
| 20260508231300 | 10 | 53 | 0.0 | 4.8 | 0.18 | 0.23 | 0.23 | 92 | 1009.0 |
| 20260508230758 | 10 | 261 | 3.2 | 6.4 | 0.13 | 0.23 | 0.23 | 92 | 1008.7 |
| 20260508230254 | 10 | 210 | 0.0 | 3.2 | 0.05 | 0.20 | 0.20 | 91 | 1008.7 |
| 20260508225752 | 10 | 254 | 1.6 | 3.2 | 0.05 | 0.20 | 0.20 | 91 | 1008.8 |
| 20260508225248 | 10 | 202 | 0.0 | 1.6 | 0.00 | 0.18 | 0.18 | 91 | 1008.7 |
| 20260508224746 | 10 | 284 | 1.6 | 12.9 | 0.05 | 0.18 | 0.18 | 91 | 1008.6 |
| 20260508224243 | 10 | 312 | 3.2 | 9.7 | 0.05 | 0.18 | 0.18 | 91 | 1008.7 |
| 20260508223741 | 10 | 271 | 4.8 | 8.0 | 0.13 | 0.18 | 0.18 | 91 | 1008.6 |
| 20260508223238 | 10 | 222 | 3.2 | 4.8 | 0.18 | 0.18 | 0.18 | 91 | 1008.6 |
| 20260508222735 | 10 | 168 | 0.0 | 8.0 | 0.23 | 0.15 | 0.15 | 90 | 1008.7 |
| 20260508222233 | 10 | 238 | 0.0 | 4.8 | 0.13 | 0.13 | 0.13 | 90 | 1008.8 |
| 20260508221729 | 10 | 215 | 0.0 | 4.8 | 0.13 | 0.13 | 0.13 | 90 | 1008.7 |
| 20260508221225 | 10 | 253 | 1.6 | 11.3 | 0.18 | 0.10 | 0.10 | 89 | 1008.7 |
| 20260508220721 | 10 | 250 | 4.8 | 6.4 | 0.18 | 0.10 | 0.10 | 89 | 1008.9 |
| 20260508220218 | 10 | 235 | 1.6 | 6.4 | 0.23 | 0.08 | 0.08 | 88 | 1008.7 |
| 20260508215714 | 11 | 183 | 1.6 | 8.0 | 0.36 | 0.08 | 0.08 | 87 | 1009.0 |
| 20260508215211 | 11 | 235 | 0.0 | 12.9 | 0.18 | 0.05 | 0.05 | 86 | 1008.6 |
| 20260508214708 | 11 | 231 | 4.8 | 9.7 | 0.00 | 0.00 | 0.00 | 85 | 1008.5 |
| 20260508214205 | 11 | 267 | 3.2 | 4.8 | 0.00 | 0.00 | 0.00 | 85 | 1008.3 |
| 20260508213701 | 11 | 124 | 1.6 | 6.4 | 0.05 | 0.00 | 0.00 | 86 | 1008.3 |
| 20260508213158 | 11 | 162 | 3.2 | 8.0 | 0.05 | 0.00 | 0.00 | 86 | 1008.5 |
| 20260508212655 | 11 | 283 | 1.6 | 9.7 | 0.00 | 0.00 | 0.00 | 85 | 1008.8 |
| 20260508212151 | 11 | 168 | 4.8 | 11.3 | 0.00 | 0.00 | 0.00 | 84 | 1008.8 |
| 20260508211651 | 11 | 243 | 4.8 | 9.7 | 0.00 | 0.00 | 0.00 | 84 | 1008.6 |
| 20260508211148 | 11 | 278 | 6.4 | 12.9 | 0.00 | 0.00 | 0.00 | 83 | 1008.9 |
| 20260508210645 | 11 | 235 | 8.0 | 11.3 | 0.00 | 0.00 | 0.00 | 83 | 1008.9 |
| 20260508210142 | 11 | 198 | 3.2 | 9.7 | 0.00 | 0.00 | 0.00 | 82 | 1009.1 |
| 20260508205639 | 11 | 266 | 9.7 | 20.9 | 0.00 | 0.00 | 0.00 | 81 | 1008.8 |
| 20260508205136 | 11 | 244 | 9.7 | 16.1 | 0.00 | 0.00 | 0.00 | 83 | 1009.1 |
| 20260508204632 | 11 | 196 | 1.6 | 14.5 | 0.00 | 0.00 | 0.00 | 82 | 1009.1 |
| 20260508204128 | 11 | 262 | 6.4 | 14.5 | 0.00 | 0.00 | 0.00 | 80 | 1009.1 |
| 20260508203624 | 11 | 233 | 8.0 | 14.5 | 0.00 | 0.00 | 0.00 | 80 | 1009.3 |
| 20260508203121 | 11 | 255 | 4.8 | 17.7 | 0.00 | 0.00 | 0.00 | 80 | 1009.1 |
| 20260508202617 | 11 | 262 | 12.9 | 20.9 | 0.00 | 0.00 | 0.00 | 79 | 1009.5 |
| 20260508202114 | 12 | 256 | 8.0 | 30.6 | 0.00 | 0.00 | 0.00 | 78 | 1009.6 |
| 20260508201611 | 12 | 261 | 8.0 | 20.9 | 0.00 | 0.00 | 0.00 | 76 | 1009.9 |
| 20260508201107 | 12 | 245 | 4.8 | 17.7 | 0.00 | 0.00 | 0.00 | 74 | 1010.0 |
| 20260508200605 | 13 | 245 | 9.7 | 17.7 | 0.00 | 0.00 | 0.00 | 73 | 1009.7 |
| 20260508200100 | 13 | 250 | 6.4 | 27.4 | 0.00 | 0.00 | 0.00 | 71 | 1009.5 |
| 20260508195557 | 13 | 217 | 8.0 | 24.1 | 0.00 | 0.00 | 0.00 | 70 | 1009.7 |
| 20260508195053 | 13 | 193 | 3.2 | 19.3 | 0.00 | 0.00 | 0.00 | 70 | 1009.7 |
| 20260508194550 | 13 | 117 | 14.5 | 19.3 | 0.00 | 0.00 | 0.00 | 70 | 1009.8 |
| 20260508194048 | 13 | 256 | 12.9 | 22.5 | 0.00 | 0.00 | 0.00 | 69 | 1009.7 |
| 20260508193544 | 13 | 263 | 4.8 | 24.1 | 0.00 | 0.00 | 0.00 | 69 | 1009.8 |
| 20260508193041 | 14 | 241 | 8.0 | 20.9 | 0.00 | 0.00 | 0.00 | 68 | 1009.6 |
| 20260508192537 | 13 | 222 | 14.5 | 19.3 | 0.00 | 0.00 | 0.00 | 68 | 1009.6 |
| 20260508192035 | 14 | 303 | 12.9 | 25.7 | 0.00 | 0.00 | 0.00 | 67 | 1009.8 |
| 20260508191531 | 14 | 214 | 6.4 | 17.7 | 0.00 | 0.00 | 0.00 | 67 | 1009.7 |
| 20260508191028 | 15 | 244 | 9.7 | 17.7 | 0.00 | 0.00 | 0.00 | 66 | 1009.8 |
| 20260508190525 | 14 | 252 | 11.3 | 20.9 | 0.00 | 0.00 | 0.00 | 66 | 1009.7 |
| 20260508190021 | 14 | 52 | 6.4 | 25.7 | 0.00 | 0.00 | 0.00 | 67 | 1009.9 |
| 20260508185519 | 15 | 249 | 19.3 | 22.5 | 0.00 | 0.00 | 0.00 | 65 | 1009.7 |
| 20260508185016 | 15 | 236 | 3.2 | 20.9 | 0.00 | 0.00 | 0.00 | 64 | 1010.0 |
| 20260508184514 | 14 | 254 | 20.9 | 29.0 | 0.00 | 0.00 | 0.00 | 65 | 1009.9 |
| 20260508184010 | 14 | 257 | 14.5 | 27.4 | 0.00 | 0.00 | 0.00 | 64 | 1010.0 |
| 20260508183507 | 14 | 241 | 29.0 | 32.2 | 0.00 | 0.00 | 0.00 | 63 | 1010.0 |
| 20260508183002 | 13 | 276 | 24.1 | 27.4 | 0.00 | 0.00 | 0.00 | 68 | 1010.3 |
| 20260508182459 | 13 | 247 | 17.7 | 24.1 | 0.00 | 0.00 | 0.00 | 68 | 1010.3 |
| 20260508181955 | 15 | 228 | 6.4 | 24.1 | 0.00 | 0.00 | 0.00 | 66 | 1010.2 |
| 20260508181451 | 14 | 253 | 3.2 | 16.1 | 0.00 | 0.00 | 0.00 | 66 | 1010.3 |
| 20260508180949 | 14 | 246 | 3.2 | 17.7 | 0.00 | 0.00 | 0.00 | 67 | 1010.4 |
| 20260508180446 | 14 | 242 | 9.7 | 29.0 | 0.00 | 0.00 | 0.00 | 67 | 1010.3 |
| 20260508175942 | 14 | 265 | 17.7 | 17.7 | 0.00 | 0.00 | 0.00 | 67 | 1010.4 |
| 20260508175438 | 14 | 207 | 4.8 | 14.5 | 0.00 | 0.00 | 0.00 | 67 | 1010.3 |
| 20260508174936 | 13 | 266 | 8.0 | 20.9 | 0.00 | 0.00 | 0.00 | 69 | 1010.7 |
| 20260508174434 | 13 | 272 | 16.1 | 24.1 | 0.00 | 0.00 | 0.00 | 68 | 1010.5 |
| 20260508173930 | 13 | 243 | 12.9 | 17.7 | 0.00 | 0.00 | 0.00 | 68 | 1010.9 |
| 20260508173428 | 13 | 259 | 8.0 | 20.9 | 0.00 | 0.00 | 0.00 | 69 | 1010.9 |
| 20260508172923 | 13 | 233 | 6.4 | 24.1 | 0.00 | 0.00 | 0.00 | 68 | 1010.9 |
| 20260508172421 | 13 | 317 | 3.2 | 24.1 | 0.00 | 0.00 | 0.00 | 67 | 1010.9 |
| 20260508171917 | 14 | 246 | 12.9 | 19.3 | 0.00 | 0.00 | 0.00 | 64 | 1011.0 |
| 20260508171413 | 14 | 259 | 4.8 | 12.9 | 0.00 | 0.00 | 0.00 | 65 | 1010.7 |
| 20260508170910 | 13 | 252 | 4.8 | 19.3 | 0.00 | 0.00 | 0.00 | 63 | 1010.9 |
| 20260508170408 | 14 | 238 | 8.0 | 22.5 | 0.00 | 0.00 | 0.00 | 61 | 1011.1 |
| 20260508165904 | 15 | 248 | 8.0 | 19.3 | 0.00 | 0.00 | 0.00 | 60 | 1011.1 |
| 20260508165402 | 14 | 252 | 9.7 | 24.1 | 0.00 | 0.00 | 0.00 | 61 | 1011.1 |
| 20260508164857 | 14 | 257 | 17.7 | 27.4 | 0.00 | 0.00 | 0.00 | 62 | 1010.9 |
| 20260508164355 | 15 | 202 | 3.2 | 20.9 | 0.00 | 0.00 | 0.00 | 63 | 1011.0 |
| 20260508163852 | 15 | 252 | 9.7 | 16.1 | 0.00 | 0.00 | 0.00 | 63 | 1010.8 |
| 20260508163350 | 15 | 232 | 3.2 | 11.3 | 0.00 | 0.00 | 0.00 | 61 | 1010.9 |
| 20260508162851 | 15 | 292 | 6.4 | 22.5 | 0.00 | 0.00 | 0.00 | 62 | 1010.5 |
| 20260508162349 | 14 | 250 | 12.9 | 20.9 | 0.00 | 0.00 | 0.00 | 62 | 1011.1 |
| 20260508161846 | 15 | 262 | 6.4 | 14.5 | 0.00 | 0.00 | 0.00 | 64 | 1011.1 |
| 20260508161343 | 14 | 259 | 6.4 | 24.1 | 0.00 | 0.00 | 0.00 | 63 | 1011.2 |
| 20260508160840 | 14 | 359 | 4.8 | 16.1 | 0.00 | 0.00 | 0.00 | 62 | 1011.1 |
| 20260508160338 | 13 | 16 | 4.8 | 14.5 | 0.00 | 0.00 | 0.00 | 62 | 1011.0 |
| 20260508155834 | 14 | 240 | 6.4 | 20.9 | 0.00 | 0.00 | 0.00 | 61 | 1011.1 |
| 20260508155332 | 15 | 248 | 9.7 | 16.1 | 0.00 | 0.00 | 0.00 | 63 | 1011.2 |
| 20260508154828 | 14 | 268 | 4.8 | 14.5 | 0.00 | 0.00 | 0.00 | 63 | 1011.4 |
| 20260508154326 | 13 | 247 | 4.8 | 19.3 | 0.00 | 0.00 | 0.00 | 63 | 1011.1 |
| 20260508153822 | 13 | 247 | 8.0 | 17.7 | 0.00 | 0.00 | 0.00 | 62 | 1011.0 |
| 20260508153320 | 15 | 206 | 3.2 | 17.7 | 0.00 | 0.00 | 0.00 | 60 | 1011.0 |
| 20260508152815 | 15 | 291 | 6.4 | 8.0 | 0.00 | 0.00 | 0.00 | 61 | 1011.2 |
| 20260508152312 | 15 | 149 | 3.2 | 14.5 | 0.00 | 0.00 | 0.00 | 61 | 1011.2 |
| 20260508151808 | 14 | 269 | 14.5 | 16.1 | 0.00 | 0.00 | 0.00 | 62 | 1011.2 |
| 20260508151305 | 14 | 222 | 8.0 | 29.0 | 0.00 | 0.00 | 0.00 | 61 | 1011.1 |
| 20260508150802 | 15 | 225 | 12.9 | 17.7 | 0.00 | 0.00 | 0.00 | 60 | 1011.2 |
| 20260508150259 | 15 | 23 | 1.6 | 17.7 | 0.00 | 0.00 | 0.00 | 61 | 1011.3 |
| 20260508145755 | 15 | 159 | 0.0 | 9.7 | 0.00 | 0.00 | 0.00 | 61 | 1011.3 |
| 20260508145251 | 13 | 271 | 12.9 | 19.3 | 0.00 | 0.00 | 0.00 | 62 | 1011.2 |
| 20260508144748 | 15 | 238 | 6.4 | 11.3 | 0.00 | 0.00 | 0.00 | 60 | 1011.3 |
| 20260508144246 | 14 | 182 | 3.2 | 8.0 | 0.00 | 0.00 | 0.00 | 61 | 1011.2 |
| 20260508143743 | 13 | 50 | 0.0 | 11.3 | 0.00 | 0.00 | 0.00 | 63 | 1011.1 |
| 20260508143240 | 13 | 281 | 4.8 | 19.3 | 0.00 | 0.00 | 0.00 | 63 | 1011.2 |
| 20260508142736 | 13 | 238 | 12.9 | 19.3 | 0.00 | 0.00 | 0.00 | 61 | 1011.3 |
| 20260508142233 | 14 | 238 | 8.0 | 14.5 | 0.00 | 0.00 | 0.00 | 59 | 1011.5 |
| 20260508141730 | 13 | 304 | 1.6 | 8.0 | 0.00 | 0.00 | 0.00 | 64 | 1011.1 |
| 20260508141227 | 13 | 244 | 8.0 | 16.1 | 0.00 | 0.00 | 0.00 | 63 | 1011.2 |
| 20260508140725 | 12 | 231 | 4.8 | 16.1 | 0.00 | 0.00 | 0.00 | 64 | 1011.3 |
| 20260508140221 | 12 | 241 | 6.4 | 22.5 | 0.00 | 0.00 | 0.00 | 63 | 1011.4 |
| 20260508135717 | 12 | 133 | 3.2 | 8.0 | 0.00 | 0.00 | 0.00 | 65 | 1011.5 |
| 20260508135213 | 12 | 243 | 3.2 | 11.3 | 0.00 | 0.00 | 0.00 | 65 | 1011.4 |
| 20260508134709 | 12 | 137 | 3.2 | 22.5 | 0.00 | 0.00 | 0.00 | 65 | 1011.3 |
| 20260508134207 | 12 | 246 | 4.8 | 20.9 | 0.00 | 0.00 | 0.00 | 64 | 1011.4 |
| 20260508133703 | 12 | 237 | 8.0 | 19.3 | 0.00 | 0.00 | 0.00 | 65 | 1011.5 |
| 20260508133201 | 12 | 233 | 3.2 | 11.3 | 0.00 | 0.00 | 0.00 | 66 | 1011.5 |
| 20260508132658 | 11 | 257 | 3.2 | 9.7 | 0.00 | 0.00 | 0.00 | 65 | 1011.4 |
| 20260508132155 | 11 | 230 | 11.3 | 19.3 | 0.00 | 0.00 | 0.00 | 65 | 1011.6 |
| 20260508131651 | 11 | 228 | 8.0 | 14.5 | 0.00 | 0.00 | 0.00 | 65 | 1011.6 |
| 20260508131147 | 11 | 196 | 3.2 | 19.3 | 0.00 | 0.00 | 0.00 | 66 | 1011.7 |
| 20260508130644 | 11 | 147 | 0.0 | 9.7 | 0.00 | 0.00 | 0.00 | 67 | 1011.6 |
| 20260508130141 | 10 | 164 | 1.6 | 9.7 | 0.00 | 0.00 | 0.00 | 68 | 1011.3 |
| 20260508125636 | 10 | 249 | 6.4 | 16.1 | 0.00 | 0.00 | 0.00 | 68 | 1011.6 |
| 20260508125134 | 10 | 54 | 0.0 | 19.3 | 0.00 | 0.00 | 0.00 | 70 | 1011.8 |
| 20260508124632 | 10 | 251 | 4.8 | 12.9 | 0.00 | 0.00 | 0.00 | 70 | 1011.8 |
| 20260508124129 | 10 | 48 | 1.6 | 14.5 | 0.00 | 0.00 | 0.00 | 71 | 1011.6 |
| 20260508123627 | 10 | 240 | 8.0 | 8.0 | 0.00 | 0.00 | 0.00 | 72 | 1011.6 |
| 20260508123124 | 10 | 352 | 0.0 | 8.0 | 0.00 | 0.00 | 0.00 | 73 | 1011.5 |
| 20260508122620 | 10 | 253 | 4.8 | 8.0 | 0.00 | 0.00 | 0.00 | 73 | 1011.6 |
| 20260508122118 | 10 | 267 | 8.0 | 11.3 | 0.00 | 0.00 | 0.00 | 74 | 1011.3 |
| 20260508121616 | 9 | 207 | 0.0 | 6.4 | 0.00 | 0.00 | 0.00 | 75 | 1011.4 |
| 20260508121114 | 9 | 290 | 0.0 | 11.3 | 0.00 | 0.00 | 0.00 | 75 | 1011.3 |
| 20260508120611 | 9 | 245 | 4.8 | 8.0 | 0.00 | 0.00 | 0.00 | 75 | 1011.3 |
| 20260508120109 | 9 | 253 | 1.6 | 6.4 | 0.00 | 0.00 | 0.00 | 75 | 1011.4 |
| 20260508115606 | 9 | 258 | 3.2 | 12.9 | 0.00 | 0.00 | 0.00 | 75 | 1011.2 |
| 20260508115103 | 9 | 252 | 9.7 | 12.9 | 0.00 | 0.00 | 0.00 | 74 | 1011.1 |
| 20260508114600 | 9 | 219 | 0.0 | 8.0 | 0.00 | 0.00 | 0.00 | 75 | 1011.2 |
| 20260508114056 | 9 | 242 | 3.2 | 14.5 | 0.00 | 0.00 | 0.00 | 74 | 1011.0 |
| 20260508113553 | 9 | 291 | 3.2 | 8.0 | 0.00 | 0.00 | 0.00 | 75 | 1011.0 |
| 20260508113052 | 9 | 203 | 3.2 | 12.9 | 0.00 | 0.00 | 0.00 | 74 | 1010.8 |
| 20260508112547 | 9 | 190 | 6.4 | 11.3 | 0.00 | 0.00 | 0.00 | 72 | 1010.9 |
| 20260508112044 | 9 | 226 | 4.8 | 12.9 | 0.00 | 0.00 | 0.00 | 72 | 1011.0 |
| 20260508111541 | 9 | 246 | 12.9 | 14.5 | 0.00 | 0.00 | 0.00 | 72 | 1010.5 |
| 20260508111038 | 9 | 277 | 4.8 | 11.3 | 0.00 | 0.00 | 0.00 | 72 | 1010.8 |
| 20260508110536 | 9 | 252 | 11.3 | 17.7 | 0.00 | 0.00 | 0.00 | 72 | 1010.5 |
| 20260508110032 | 9 | 260 | 8.0 | 14.5 | 0.00 | 0.00 | 0.00 | 72 | 1010.8 |
| 20260508105527 | 9 | 262 | 1.6 | 11.3 | 0.00 | 0.00 | 0.00 | 73 | 1010.5 |
| 20260508105025 | 8 | 240 | 3.2 | 12.9 | 0.00 | 0.00 | 0.00 | 73 | 1010.7 |
| 20260508104523 | 8 | 253 | 3.2 | 6.4 | 0.00 | 0.00 | 0.00 | 73 | 1010.7 |
| 20260508104018 | 8 | 259 | 8.0 | 17.7 | 0.00 | 0.00 | 0.00 | 73 | 1010.8 |
| 20260508103515 | 8 | 276 | 3.2 | 16.1 | 0.00 | 0.00 | 0.00 | 73 | 1010.9 |
| 20260508103013 | 8 | 254 | 6.4 | 16.1 | 0.00 | 0.00 | 0.00 | 73 | 1011.1 |
| 20260508102511 | 8 | 266 | 3.2 | 17.7 | 0.00 | 0.00 | 0.00 | 73 | 1011.0 |
| 20260508102008 | 8 | 256 | 4.8 | 14.5 | 0.00 | 0.00 | 0.00 | 73 | 1010.7 |
| 20260508101505 | 8 | 249 | 16.1 | 17.7 | 0.00 | 0.00 | 0.00 | 74 | 1010.9 |
| 20260508101002 | 8 | 281 | 1.6 | 8.0 | 0.00 | 0.00 | 0.00 | 75 | 1010.5 |
| 20260508100501 | 8 | 240 | 1.6 | 4.8 | 0.00 | 0.00 | 0.00 | 76 | 1010.7 |
| 20260508095956 | 8 | 147 | 0.0 | 4.8 | 0.00 | 0.00 | 0.00 | 76 | 1010.5 |
| 20260508095454 | 8 | 265 | 0.0 | 6.4 | 0.00 | 0.00 | 0.00 | 76 | 1010.5 |
| 20260508094951 | 8 | 249 | 0.0 | 8.0 | 0.00 | 0.00 | 0.00 | 76 | 1010.7 |
| 20260508094448 | 7 | 241 | 1.6 | 6.4 | 0.00 | 0.00 | 0.00 | 77 | 1010.7 |
| 20260508093944 | 7 | 254 | 1.6 | 8.0 | 0.00 | 0.00 | 0.00 | 77 | 1010.9 |
| 20260508093442 | 7 | 76 | 0.0 | 6.4 | 0.00 | 0.00 | 0.00 | 77 | 1010.8 |
| 20260508092940 | 7 | 255 | 6.4 | 9.7 | 0.00 | 0.00 | 0.00 | 77 | 1010.8 |
| 20260508092437 | 7 | 230 | 3.2 | 9.7 | 0.00 | 0.00 | 0.00 | 77 | 1010.5 |
| 20260508091936 | 7 | 180 | 1.6 | 6.4 | 0.00 | 0.00 | 0.00 | 77 | 1010.8 |
| 20260508091432 | 7 | 222 | 0.0 | 11.3 | 0.00 | 0.00 | 0.00 | 77 | 1010.8 |
| 20260508090929 | 7 | 29 | 3.2 | 8.0 | 0.00 | 0.00 | 0.00 | 77 | 1011.1 |
| 20260508090428 | 7 | 226 | 4.8 | 12.9 | 0.00 | 0.00 | 0.00 | 76 | 1010.8 |
| 20260508085923 | 7 | 247 | 6.4 | 11.3 | 0.00 | 0.00 | 0.00 | 76 | 1011.0 |
| 20260508085420 | 8 | 279 | 6.4 | 12.9 | 0.00 | 0.00 | 0.00 | 76 | 1011.1 |
| 20260508084917 | 8 | 280 | 4.8 | 8.0 | 0.00 | 0.00 | 0.00 | 76 | 1010.9 |
| 20260508084413 | 7 | 249 | 8.0 | 16.1 | 0.00 | 0.00 | 0.00 | 76 | 1011.1 |
| 20260508083911 | 7 | 212 | 6.4 | 9.7 | 0.00 | 0.00 | 0.00 | 76 | 1011.0 |
| 20260508083409 | 7 | 281 | 1.6 | 6.4 | 0.00 | 0.00 | 0.00 | 77 | 1011.0 |
| 20260508082908 | 7 | 283 | 3.2 | 6.4 | 0.00 | 0.00 | 0.00 | 78 | 1011.2 |
| 20260508082406 | 7 | 288 | 0.0 | 4.8 | 0.00 | 0.00 | 0.00 | 77 | 1011.2 |
| 20260508081904 | 7 | 194 | 1.6 | 4.8 | 0.00 | 0.00 | 0.00 | 77 | 1011.1 |
| 20260508081400 | 7 | 235 | 3.2 | 9.7 | 0.00 | 0.00 | 0.00 | 77 | 1011.3 |
| 20260508080857 | 7 | 200 | 0.0 | 6.4 | 0.00 | 0.00 | 0.00 | 77 | 1011.2 |
| 20260508080355 | 7 | 193 | 4.8 | 9.7 | 0.00 | 0.00 | 0.00 | 76 | 1011.3 |
| 20260508075851 | 8 | 187 | 4.8 | 11.3 | 0.00 | 0.00 | 0.00 | 75 | 1010.9 |
| 20260508075348 | 8 | 197 | 4.8 | 11.3 | 0.00 | 0.00 | 0.00 | 75 | 1011.4 |
| 20260508074846 | 8 | 253 | 4.8 | 16.1 | 0.00 | 0.00 | 0.00 | 74 | 1011.1 |
| 20260508074343 | 8 | 223 | 3.2 | 8.0 | 0.00 | 0.00 | 0.00 | 74 | 1011.1 |
| 20260508073840 | 8 | 199 | 3.2 | 16.1 | 0.00 | 0.00 | 0.00 | 73 | 1011.3 |
| 20260508073338 | 8 | 220 | 3.2 | 16.1 | 0.00 | 0.00 | 0.00 | 72 | 1011.4 |
| 20260508072834 | 8 | 262 | 4.8 | 16.1 | 0.00 | 0.00 | 0.00 | 72 | 1011.4 |
| 20260508072331 | 8 | 244 | 4.8 | 16.1 | 0.00 | 0.00 | 0.00 | 71 | 1011.0 |
| 20260508071828 | 8 | 249 | 6.4 | 19.3 | 0.00 | 0.00 | 0.00 | 70 | 1011.2 |
| 20260508071326 | 9 | 249 | 12.9 | 20.9 | 0.00 | 0.00 | 0.00 | 69 | 1011.5 |
| 20260508070824 | 9 | 282 | 6.4 | 33.8 | 0.00 | 0.00 | 0.00 | 68 | 1011.4 |
| 20260508070322 | 9 | 164 | 1.6 | 11.3 | 0.00 | 0.00 | 0.00 | 67 | 1011.2 |
| 20260508065819 | 9 | 245 | 6.4 | 20.9 | 0.00 | 0.00 | 0.00 | 65 | 1011.3 |
| 20260508065317 | 9 | 256 | 8.0 | 24.1 | 0.00 | 0.00 | 0.00 | 65 | 1011.4 |
| 20260508064814 | 9 | 250 | 6.4 | 14.5 | 0.00 | 0.00 | 0.00 | 64 | 1011.3 |
| 20260508064312 | 9 | 265 | 6.4 | 16.1 | 0.00 | 0.00 | 0.00 | 64 | 1011.4 |
| 20260508063809 | 9 | 258 | 6.4 | 14.5 | 0.00 | 0.00 | 0.00 | 64 | 1011.2 |
| 20260508063307 | 9 | 223 | 3.2 | 11.3 | 0.00 | 0.00 | 0.00 | 63 | 1011.3 |
| 20260508062804 | 9 | 265 | 6.4 | 14.5 | 0.00 | 0.00 | 0.00 | 64 | 1011.3 |
| 20260508062305 | 9 | 254 | 6.4 | 8.0 | 0.00 | 0.00 | 0.00 | 64 | 1011.4 |
| 20260508061758 | 8 | 226 | 1.6 | 9.7 | 0.00 | 0.00 | 0.00 | 64 | 1011.5 |
| 20260508061255 | 8 | 256 | 3.2 | 6.4 | 0.00 | 0.00 | 0.00 | 65 | 1011.2 |
| 20260508060752 | 8 | 205 | 4.8 | 9.7 | 0.00 | 0.00 | 0.00 | 64 | 1011.1 |
| 20260508060250 | 8 | 294 | 3.2 | 17.7 | 0.00 | 0.00 | 0.00 | 64 | 1011.4 |
| 20260508055745 | 8 | 261 | 3.2 | 8.0 | 0.00 | 0.00 | 0.00 | 65 | 1011.5 |
| 20260508055242 | 8 | 213 | 3.2 | 6.4 | 0.00 | 0.00 | 0.00 | 65 | 1011.5 |
| 20260508054739 | 8 | 181 | 1.6 | 8.0 | 0.00 | 0.00 | 0.00 | 65 | 1011.5 |
| 20260508054237 | 8 | 308 | 0.0 | 8.0 | 0.00 | 0.00 | 0.00 | 65 | 1011.6 |
| 20260508053734 | 8 | 232 | 3.2 | 8.0 | 0.00 | 0.00 | 0.00 | 65 | 1011.5 |
| 20260508053231 | 8 | 232 | 0.0 | 6.4 | 0.00 | 0.00 | 0.00 | 64 | 1011.6 |
| 20260508052728 | 9 | 290 | 0.0 | 6.4 | 0.00 | 0.00 | 0.00 | 64 | 1011.7 |
| 20260508052225 | 9 | 273 | 8.0 | 9.7 | 0.00 | 0.00 | 0.00 | 64 | 1011.7 |
| 20260508051721 | 9 | 255 | 3.2 | 9.7 | 0.00 | 0.00 | 0.00 | 63 | 1011.8 |
| 20260508051217 | 9 | 211 | 0.0 | 8.0 | 0.00 | 0.00 | 0.00 | 63 | 1011.7 |
| 20260508050713 | 9 | 275 | 6.4 | 8.0 | 0.00 | 0.00 | 0.00 | 63 | 1011.9 |
| 20260508050211 | 9 | 265 | 3.2 | 4.8 | 0.00 | 0.00 | 0.00 | 63 | 1011.9 |
| 20260508045706 | 9 | 255 | 0.0 | 9.7 | 0.00 | 0.00 | 0.00 | 63 | 1011.7 |
| 20260508045204 | 9 | 174 | 3.2 | 8.0 | 0.00 | 0.00 | 0.00 | 62 | 1011.9 |
| 20260508044701 | 9 | 239 | 4.8 | 8.0 | 0.00 | 0.00 | 0.00 | 63 | 1011.8 |
| 20260508044157 | 9 | 11 | 0.0 | 9.7 | 0.00 | 0.00 | 0.00 | 63 | 1011.8 |
| 20260508043654 | 9 | 251 | 6.4 | 8.0 | 0.00 | 0.00 | 0.00 | 62 | 1011.8 |
| 20260508043152 | 9 | 263 | 6.4 | 9.7 | 0.00 | 0.00 | 0.00 | 62 | 1011.9 |
| 20260508042648 | 9 | 32 | 0.0 | 9.7 | 0.00 | 0.00 | 0.00 | 62 | 1011.9 |
| 20260508042145 | 9 | 191 | 0.0 | 6.4 | 0.00 | 0.00 | 0.00 | 62 | 1011.9 |
| 20260508041642 | 9 | 274 | 6.4 | 9.7 | 0.00 | 0.00 | 0.00 | 62 | 1012.0 |
| 20260508041139 | 9 | 252 | 6.4 | 14.5 | 0.00 | 0.00 | 0.00 | 62 | 1011.9 |
| 20260508040635 | 9 | 296 | 4.8 | 11.3 | 0.00 | 0.00 | 0.00 | 62 | 1012.0 |
| 20260508040133 | 9 | 209 | 1.6 | 9.7 | 0.00 | 0.00 | 0.00 | 62 | 1012.0 |
| 20260508035630 | 9 | 262 | 3.2 | 11.3 | 0.00 | 0.00 | 0.00 | 61 | 1012.0 |